Location: Fontevrault
(47.1823°N, 0.0493°E)
Time: 18:06:16
(UTC+00:00)

Cosmos 1725 Rocket - Pass Details

Date: 24 October 2021
Orbit: 961 x 991 km, 82.9° (Epoch: 27 November)

Event Time Altitude Azimuth Distance (km) Brightness Sun altitude
Exits shadow 19:29:49 16° 26° (NNE) 2,324 5.8 -26.7°
Drops below altitude 10° 19:30:58 10° 21° (NNE) 2,717 6.2 -26.9°
Sets 19:33:35 0° 15° (NNE) 3,665 7.0 -27.3°
